Overview Statistics Trail Chart Weather Telemetry Raw packets
 

This is the latest recevied weather packets stored in our database for station/object N6ZHV-13. If no packets are shown the sender has not sent any weather packets the latest 10 day(s).

<< 34 35 36 37 38 39 40 >>
Time Temp. Humidity Pressure Rain* Wind** Luminosity Snow
1788454324 21.67° C 71% 1010.8 hPa 0 mm - - -
1788454024 21.67° C 70% 1010.8 hPa 0 mm - - -
1788453724 21.11° C 72% 1010.8 hPa 0 mm - - -
1788453424 21.11° C 74% 1010.7 hPa 0 mm - - -
1788453124 20.56° C 75% 1010.7 hPa 0 mm - - -
1788452824 20.56° C 74% 1010.7 hPa 0 mm - - -
1788452524 21.11° C 76% 1010.6 hPa 0 mm - - -
1788452224 20.56° C 76% 1010.7 hPa 0 mm - - -
1788451924 20.56° C 76% 1010.7 hPa 0 mm - - -
1788451624 20.56° C 77% 1010.6 hPa 0 mm - - -
1788451324 20.56° C 79% 1010.6 hPa 0 mm - - -
1788451024 20.56° C 79% 1010.6 hPa 0 mm - - -
1788450724 20.56° C 79% 1010.6 hPa 0 mm - - -
1788450424 20° C 79% 1010.7 hPa 0 mm - - -
1788450124 20.56° C 79% 1010.7 hPa 0 mm - - -
1788449824 20.56° C 79% 1010.7 hPa 0 mm - - -
1788449524 20.56° C 79% 1010.7 hPa 0 mm - - -
1788449224 20° C 79% 1010.7 hPa 0 mm - - -
1788448924 20° C 78% 1010.7 hPa 0 mm - - -
1788448624 20° C 78% 1010.6 hPa 0 mm - - -
1788448324 20° C 77% 1010.7 hPa 0 mm - - -
1788448024 19.44° C 77% 1010.5 hPa 0 mm - - -
1788447724 18.89° C 77% 1010.6 hPa 0 mm - - -
1788447424 18.89° C 77% 1010.8 hPa 0 mm - - -
1788447124 18.89° C 77% 1010.8 hPa 0 mm - - -

* Rain latest hour (hover to see other rain measurements)
** Current wind speed in m/s (hover to see current wind gust speed)